Probability
0 0 0 0 0 0 0 0 0 0 0 0 0 0 0 0 0 1 2 2 2 1 0 0 0 0 0 0 0 0 1 4 5 3 1 0 0 0 0 0 0 0 0 0
0 0 0 0 0 0 0 0 0 0 0 0 0 0 0 0 0 0 1 1 1 0 0 0 0 0 0 0 0 0 1 3 5 5 3 1 1 0 0 0 0 0 0 0
0 0 0 0 0 0 0 0 0 0 0 0 0 0 0 0 0 0 0 0 0 0 0 0 0 0 0 0 0 0 0 1 3 4 4 3 2 1 1 1 0 0 0 0
0 0 0 0 0 0 0 0 0 0 0 0 0 0 0 0 0 0 0 0 0 0 0 0 0 0 0 0 0 0 0 0 1 2 3 3 3 3 2 1 0 0 0 0
0 0 0 0 0 0 0 0 0 0 0 0 0 0 0 0 0 0 0 0 0 0 0 0 0 0 0 0 0 0 0 0 0 0 1 2 3 3 3 1 0 0 0 0
0 0 0 0 0 0 0 0 0 0 0 0 0 0 0 0 0 0 0 0 0 0 0 0 0 0 0 0 0 0 0 0 0 0 0 1 1 2 2 1 0 0 0 0
0 0 0 0 0 0 0 0 0 0 0 0 0 0 0 0 0 0 0 0 0 0 0 0 0 0 0 0 0 0 0 0 0 0 0 0 0 1 1 0 0 0 0 0
0 0 0 0 0 0 0 0 0 0 0 0 0 0 0 0 0 0 0 0 0 0 0 0 0 0 0 0 0 0 0 0 0 0 0 0 0 0 0 0 0 0 0 0
0 0 0 0 0 0 0 0 0 0 0 0 0 0 0 0 0 0 0 0 0 0 0 0 0 0 0 0 0 0 0 0 0 0 0 0 0 0 0 0 0 0 0 0
0 0 0 0 0 0 0 0 0 0 0 0 0 0 0 0 0 0 0 0 0 0 0 0 0 0 0 0 0 0 0 0 0 0 0 0 0 0 0 0 0 0 0 0
0 0 0 0 0 0 0 0 0 0 0 0 0 0 0 0 0 0 0 0 0 0 0 0 0 0 0 0 0 0 0 0 0 0 0 0 0 0 0 0 0 0 0 0
0 0 0 0 0 0 0 0 0 0 0 0 0 0 0 0 0 0 0 0 0 0 0 0 0 0 0 0 0 0 0 0 0 0 0 0 0 0 0 0 0 0 0 0
0 0 0 0 0 0 0 0 0 0 0 0 0 0 0 0 0 0 0 0 0 0 0 0 0 0 0 0 0 0 0 0 0 0 0 0 0 0 0 0 0 0 0 0
0 0 0 0 0 0 0 0 0 0 0 0 0 0 0 0 0 0 0 0 0 0 0 0 0 0 0 0 0 0 0 0 0 0 0 0 0 0 0 0 0 0 0 0
0 0 0 0 0 0 0 0 0 0 0 0 0 0 0 0 0 0 0 0 0 0 0 0 0 0 0 0 0 0 0 0 0 0 0 0 0 0 0 0 0 0 0 0
0 0 0 0 0 0 0 0 0 0 0 0 0 0 0 0 0 0 0 0 0 0 0 0 0 0 0 0 0 0 0 0 0 0 0 0 0 0 0 0 0 0 0 0
0 0 0 0 0 0 0 0 0 0 0 0 0 0 0 0 0 0 0 0 0 0 0 0 0 0 0 0 0 0 0 0 0 0 0 0 0 0 0 0 0 0 0 0
0 0 0 0 0 0 0 0 0 0 0 0 0 0 0 0 0 0 0 0 0 0 0 0 0 0 0 0 0 0 0 0 0 0 0 0 0 0 0 0 0 0 0 0
0 0 0 0 0 0 0 0 0 0 0 0 0 0 0 0 0 0 0 0 0 0 0 0 0 0 0 0 0 0 0 0 0 0 0 0 0 0 0 0 0 0 0 0
0 0 0 0 0 0 0 0 0 0 0 0 0 0 0 0 0 0 0 0 0 0 0 0 0 0 0 0 0 0 0 0 0 0 0 0 0 0 0 0 0 0 0 0
0 0 0 0 0 0 0 0 0 0 0 0 0 0 0 0 0 0 0 0 0 0 0 0 0 0 0 0 0 0 0 0 0 0 0 0 0 0 0 0 0 0 0 0
0 0 0 0 0 0 0 0 0 0 0 0 0 0 0 0 0 0 0 0 0 0 0 0 0 0 0 0 0 0 0 0 0 0 0 0 0 0 0 0 0 0 0 0
0 0 0 0 0 0 0 0 0 0 0 0 0 0 0 0 0 0 0 0 0 0 0 0 0 0 0 0 0 0 0 0 0 0 0 0 0 0 0 0 0 0 0 0
0 0 0 0 0 0 0 0 0 0 0 0 0 0 0 0 0 0 0 0 0 0 0 0 0 0 0 0 0 0 0 0 0 0 0 0 0 0 0 0 0 0 0 0
0 0 0 0 0 0 0 0 0 0 0 0 0 0 0 0 0 0 0 0 0 0 0 0 0 0 0 0 0 0 0 0 0 0 0 0 0 0 0 0 0 0 0 0
0 0 0 0 0 0 0 0 0 0 0 0 0 0 0 0 0 0 0 0 0 0 0 0 0 0 0 0 0 0 0 0 0 0 0 0 0 0 0 0 0 0 0 0
Wind_Speed
5 6 3 2 1 1 3 3 1 1 1 1 1 3 4 2 1 1 1 1 2 2 3 2 2 2 2 2 2 1 1 2 1 1 1 1 2 2 2 2 3 3 3 3
5 3 3 2 2 3 2 1 0 1 2 0 1 4 4 2 2 3 2 2 2 2 3 3 2 2 2 2 2 2 1 1 1 1 1 1 1 1 1 2 2 3 3 3
5 1 1 2 3 2 0 2 2 2 2 1 1 4 3 2 1 1 1 2 2 2 2 3 2 2 2 2 2 2 2 2 2 1 1 2 1 1 1 2 2 3 3 2
3 3 2 2 2 1 1 1 1 1 0 2 1 3 4 2 1 2 3 2 3 3 2 2 2 3 2 3 3 2 2 2 2 1 1 1 1 2 3 3 3 3 3 3
2 2 2 1 1 0 1 0 0 1 1 1 1 2 6 1 2 4 4 3 3 3 3 2 2 2 3 2 2 3 3 3 2 1 1 1 2 3 2 2 3 3 3 3
1 1 1 1 1 1 0 2 2 2 2 2 3 3 6 3 4 3 2 2 3 3 3 3 2 2 3 3 3 3 3 3 4 3 2 1 2 3 3 4 4 3 3 3
4 2 2 1 1 2 2 3 3 4 2 4 1 3 7 4 3 3 3 3 3 2 2 3 3 3 4 4 4 4 4 4 4 4 3 3 3 3 3 4 4 4 3 3
2 3 3 2 1 1 0 3 4 3 3 4 1 5 6 2 1 1 1 1 2 2 2 2 2 2 3 4 4 4 4 4 4 4 4 4 4 3 3 4 4 4 4 4
1 3 2 2 1 2 2 1 1 4 1 2 4 5 6 0 2 2 2 2 2 2 2 2 2 2 3 3 3 3 3 4 4 4 4 4 4 4 4 4 4 3 4 4
2 2 3 2 2 3 1 3 3 3 2 3 5 5 4 2 2 2 2 2 4 3 3 3 3 2 2 2 3 3 2 3 4 4 4 4 4 4 4 4 5 5 5 5
1 1 3 2 1 1 2 2 2 3 3 3 3 7 4 4 3 3 3 3 3 3 3 3 3 2 2 2 3 3 3 3 4 4 4 4 4 4 4 4 5 5 5 6
1 2 2 4 2 1 2 3 4 3 2 3 2 8 2 2 2 2 3 4 3 3 3 3 3 3 2 2 3 3 3 3 4 4 4 5 5 5 5 5 5 5 5 5
2 3 2 4 3 2 1 2 3 3 3 4 4 9 2 2 2 2 3 4 4 3 3 3 3 3 3 2 2 3 3 3 4 4 4 5 5 5 5 5 5 5 5 5
3 2 4 6 4 2 3 3 4 4 4 5 9 10 8 6 5 5 4 4 4 3 3 3 3 3 3 3 2 2 3 3 4 4 4 5 5 5 5 5 5 5 5 5
3 2 3 5 4 3 6 7 7 9 9 9 9 9 12 8 6 6 5 4 4 4 4 3 3 3 3 3 3 3 3 4 4 4 4 5 5 5 5 5 6 6 5 5
2 1 1 4 2 4 7 10 11 12 10 11 11 14 11 7 4 5 5 5 5 5 5 4 4 3 4 4 4 3 3 4 3 4 4 5 5 5 5 6 6 6 6 6
2 3 1 4 5 5 9 10 11 8 9 9 13 12 4 4 6 6 5 5 6 6 5 5 4 4 4 3 3 3 4 4 4 4 5 5 5 6 6 6 6 6 7 7
5 4 2 2 4 7 9 1 5 7 8 9 9 7 6 7 5 4 4 6 7 6 5 5 4 3 3 3 3 3 3 3 4 5 5 5 6 6 6 6 6 7 6 6
4 6 3 1 3 11 11 4 5 6 8 9 11 10 8 5 3 5 5 5 6 6 5 4 3 3 3 3 3 3 3 3 4 5 6 6 6 7 7 7 7 7 7 7
2 4 4 3 3 9 8 1 2 2 7 6 8 9 6 2 3 6 3 3 4 4 3 3 2 2 3 3 3 3 4 4 5 6 6 6 6 7 8 8 8 7 7 8
3 3 5 6 7 13 8 2 4 4 9 3 7 8 6 7 8 5 2 2 3 3 2 2 2 2 3 3 2 3 4 5 6 6 6 6 6 7 8 8 7 7 7 8
10 8 8 7 7 15 6 8 10 11 3 3 4 5 6 7 6 4 3 3 3 2 2 2 2 3 3 2 2 4 5 6 6 6 6 7 7 6 6 7 7 7 7 8
11 12 10 13 14 6 8 10 7 3 4 4 4 5 6 6 6 6 5 4 4 3 3 2 2 4 4 2 2 5 6 6 5 6 6 7 7 6 6 6 7 7 6 6
7 5 5 8 13 10 9 9 8 6 7 6 5 5 5 7 7 6 5 4 4 3 3 2 2 4 5 3 3 5 6 5 4 6 7 7 7 7 6 6 5 6 6 6
9 8 6 10 11 7 10 12 13 10 8 7 7 6 7 7 7 6 5 5 4 3 3 2 3 4 6 5 5 5 4 4 5 6 7 7 6 6 6 6 6 7 7 7
10 12 12 13 11 9 9 7 8 9 9 9 8 7 5 6 7 5 5 4 3 3 3 3 4 5 6 5 6 5 4 3 4 6 6 5 5 5 6 6 7 10 11 14
Wind_Direction
30 57 40 314 283 133 119 123 144 258 325 62 206 252 271 275 268 255 253 250 249 260 288 335 352 359 13 6 358 357 356 338 359 317 279 286 290 309 319 320 338 338 340 340
56 36 310 340 41 70 105 117 280 317 345 43 266 276 267 242 222 223 225 240 251 292 338 346 357 11 5 348 334 339 330 331 319 286 268 291 291 280 284 311 319 328 328 329
97 333 328 61 44 51 14 197 213 253 336 359 337 303 275 269 259 306 278 255 257 255 283 309 327 329 344 343 323 319 304 308 303 329 16 13 14 354 341 329 313 310 307 308
59 338 33 69 27 19 269 261 212 212 108 300 47 287 283 267 288 275 268 269 266 282 288 294 308 318 313 303 311 316 316 325 327 353 51 57 331 289 291 306 306 315 306 301
26 360 29 49 305 160 234 290 148 187 170 317 319 239 284 320 268 260 257 258 262 268 270 287 297 294 305 316 328 330 341 344 344 357 317 253 278 279 302 324 325 323 316 311
345 343 28 279 294 173 144 64 61 54 74 287 235 200 281 240 229 253 264 274 285 297 298 300 309 329 343 352 357 355 359 354 352 346 332 301 288 304 323 325 320 317 313 310
350 350 354 358 38 21 52 85 39 10 2 256 219 211 253 254 228 221 249 273 294 313 319 328 338 347 351 354 357 0 5 358 355 354 347 329 309 302 299 305 307 308 305 302
28 324 337 355 140 169 65 127 146 187 232 284 291 233 252 263 293 302 262 262 328 332 332 333 332 338 339 341 351 2 3 357 357 355 345 343 345 334 319 314 309 304 302 300
133 278 323 328 316 126 129 137 144 125 69 302 274 279 294 205 354 357 0 356 312 306 308 308 319 332 335 337 338 343 349 348 349 348 344 346 348 341 329 324 317 313 314 317
145 266 302 312 45 29 110 143 103 117 144 278 291 270 252 264 282 326 312 285 283 297 308 308 313 320 322 322 327 343 348 337 335 342 341 343 338 333 332 336 334 327 325 324
106 163 315 4 170 198 98 109 112 117 153 169 273 274 229 216 214 221 247 266 278 287 290 294 301 312 320 340 348 341 337 343 341 338 336 338 335 332 334 333 331 327 328 329
132 120 275 263 260 235 181 177 157 159 227 200 228 270 273 213 225 228 260 279 295 294 293 293 299 315 334 340 342 342 341 344 336 334 336 336 336 338 339 334 331 330 328 326
130 112 16 346 341 360 260 203 175 144 143 182 203 260 304 335 317 290 274 285 297 299 302 311 323 326 322 326 328 330 333 330 329 334 336 335 335 336 334 329 326 325 322 321
103 144 182 213 237 221 245 228 189 164 188 216 226 250 279 286 288 293 289 285 286 289 294 303 310 309 309 313 312 316 320 322 326 332 333 329 326 326 323 322 322 320 320 319
90 202 246 268 281 270 250 242 213 210 210 217 238 240 259 262 261 268 273 281 289 290 291 289 290 297 303 308 311 315 320 324 327 327 325 316 313 317 319 320 319 317 317 313
85 168 329 298 309 297 276 254 235 231 228 236 253 265 259 264 261 259 264 268 273 278 281 286 290 293 297 303 306 311 311 314 319 315 311 311 313 316 316 314 315 315 313 312
135 125 90 282 321 343 277 241 213 210 210 205 229 243 248 252 252 247 247 252 261 271 276 279 277 278 290 298 304 300 301 312 318 314 314 318 317 315 314 313 315 312 311 311
150 132 141 311 10 254 245 201 198 216 239 223 237 251 246 242 256 259 244 243 260 267 272 272 271 278 288 296 302 306 317 318 315 313 313 317 317 313 313 314 311 310 309 307
169 146 137 145 268 279 289 251 187 199 264 232 230 245 253 261 309 284 252 231 239 250 257 259 262 275 293 297 298 308 311 313 314 314 315 316 313 309 310 309 306 305 305 302
112 127 134 151 212 251 254 206 164 112 280 245 206 226 232 186 264 265 238 221 237 248 253 259 278 293 291 292 302 301 300 308 305 306 306 306 305 302 302 301 301 301 300 297
146 166 185 192 231 262 254 195 132 175 249 227 190 208 203 204 227 250 228 234 239 251 263 266 270 275 281 295 299 287 292 293 297 304 305 305 303 299 296 296 297 299 298 298
178 176 191 172 209 253 206 155 191 219 232 202 199 205 210 226 245 257 249 246 249 259 270 269 274 285 296 303 289 284 287 296 306 306 304 303 302 299 297 296 297 298 296 295
203 195 188 194 215 238 181 203 223 222 225 229 220 223 215 231 245 249 248 247 251 251 259 269 271 288 297 301 282 276 288 303 307 303 298 297 299 297 297 295 296 297 294 290
231 197 200 240 255 248 237 243 251 238 234 241 236 234 222 233 243 246 248 252 255 257 259 270 273 281 289 295 285 276 290 303 300 294 296 299 300 300 300 295 290 289 289 289
212 181 208 245 262 275 253 236 238 241 239 243 243 234 228 231 242 240 244 250 252 260 268 264 265 274 283 296 292 291 297 305 298 294 295 299 297 297 298 293 285 286 278 278
193 188 195 230 223 213 239 224 216 223 233 232 234 242 236 225 234 235 240 243 243 253 265 269 271 276 283 291 290 293 296 290 287 293 298 297 297 295 295 297 298 291 291 296